San Ildefonso, Spain
Current Conditions -  °F | °C
As of 8:00 PM on Sunday 21 Dec 2014 (Local Time) from LEVS Reporting Station
Clear Clear  
Wind Chill: 43°   Ceiling: Unl
Heat Index: 43°   Visibility: 6mi
Dew Point: 39°   Wind: 1mph
Humidity: 87%   Direction: 360°N
Pressure: 30.45"   Gusts: NA
Location:  40.9°N, 4.01°W
Report Text: LEVS 211900Z 36001KT CAVOK 06/04 Q1031
Loading
Personal Weather Stations






























Interactive Weather Map New forecast layout! Learn more

10-Day Weather Forecast

Advertisements
Track Severe Weather on mobile